Wind_Speed
5 5 5 4 5 5 6 6 5 4 3 2 2 3 4 5 6 7 8 9 10 11 12 13 14 15 16 16 17 18 19 20 20 21 22 23 24 24 25 26 27 28 29 30 30 31 32 33 34
8 8 7 7 6 6 5 5 4 3 2 2 3 5 6 8 9 9 10 11 12 12 13 14 15 16 16 17 18 20 21 21 22 23 24 25 26 27 28 29 30 31 32 33 33 34 35 36 37
9 8 8 7 6 5 4 4 3 2 3 4 6 7 9 10 10 11 11 12 12 13 14 15 15 17 18 19 20 21 22 23 24 24 25 27 28 29 31 32 33 34 35 35 36 37 38 39 40
9 7 6 6 5 4 3 3 4 5 6 8 9 10 11 11 11 11 11 12 13 13 14 15 17 18 19 20 21 22 23 24 25 27 28 29 30 32 33 34 35 36 37 38 39 40 42 43 44
6 5 5 4 4 4 5 6 7 9 10 10 11 12 12 12 12 11 12 12 13 14 15 17 18 19 20 21 22 24 25 26 27 29 30 31 33 34 35 36 37 38 39 41 42 43 45 46 47
4 3 3 3 4 6 7 9 10 11 12 12 12 13 13 12 11 11 12 13 14 15 16 18 19 20 21 23 24 25 26 28 29 30 32 33 34 36 37 38 40 41 42 43 45 47 48 49 51
2 2 3 5 7 8 10 11 12 13 13 13 13 12 12 12 11 12 12 13 15 16 18 19 20 21 22 24 25 26 27 29 30 32 33 34 36 37 39 40 41 43 44 46 48 49 51 53 54
2 4 6 8 9 11 12 13 14 14 14 13 12 11 11 11 12 13 13 15 16 17 19 20 21 22 23 24 26 27 28 30 31 32 34 35 37 38 39 41 43 44 46 48 50 52 53 55 57
5 8 10 11 12 13 14 15 15 15 14 13 12 11 11 12 13 14 15 16 17 18 20 21 22 23 24 25 26 28 29 30 32 33 34 36 37 39 41 42 44 46 48 50 51 53 55 57 60
9 10 13 14 15 15 15 16 15 15 14 12 12 11 12 13 14 15 16 17 18 19 20 21 23 23 24 26 27 28 30 31 33 34 36 37 39 40 42 44 46 47 49 51 53 55 57 59 61
11 13 15 16 16 16 15 16 15 14 13 12 12 12 13 14 15 16 17 18 19 20 21 22 23 24 25 26 28 29 31 32 34 35 37 38 40 42 43 45 47 49 50 52 54 56 58 60 63
14 15 16 16 16 16 15 15 14 13 13 12 13 13 14 14 15 16 17 18 19 20 21 22 24 25 26 28 29 30 32 34 35 37 38 40 42 43 45 46 48 50 51 53 55 57 59 62 64
16 16 17 17 17 16 15 13 13 13 12 13 13 13 14 14 16 17 18 19 19 20 22 23 25 26 27 28 30 32 33 35 37 38 40 41 43 44 46 48 49 51 52 54 56 58 60 63 66
17 17 17 17 17 16 15 13 13 13 13 13 13 13 14 15 16 17 18 19 20 21 22 24 25 27 28 29 31 33 34 36 38 39 41 42 44 45 47 49 50 51 53 55 57 59 61 64 67
18 18 18 18 17 16 15 14 14 13 13 14 13 13 14 15 16 17 18 19 20 21 23 24 26 27 29 30 32 34 35 37 39 40 42 43 45 46 48 50 51 53 54 56 58 61 63 65 68
19 19 18 18 17 17 16 14 16 14 14 14 14 14 15 16 16 17 18 19 20 22 23 24 26 27 29 31 33 35 36 38 40 41 43 45 46 48 49 51 53 54 56 58 60 62 65 67 70
20 19 19 19 18 18 17 14 18 15 15 15 15 16 16 17 17 18 19 20 21 22 23 25 26 27 29 31 33 35 37 39 41 43 44 46 48 49 50 52 54 56 58 59 62 64 66 68 71
21 20 20 21 20 19 18 15 18 18 16 16 17 17 17 18 18 19 20 21 22 23 24 25 27 28 30 32 34 36 39 41 43 44 46 48 49 51 52 53 55 57 59 61 63 66 68 70 72
22 22 21 22 23 21 20 18 18 20 17 18 18 18 19 20 20 21 22 23 24 25 26 27 28 30 31 33 35 38 40 42 44 46 48 50 51 53 54 55 57 59 61 63 65 67 69 72 74
23 23 23 23 24 24 22 19 20 21 20 20 20 20 21 22 22 23 24 25 26 27 28 29 30 32 33 35 37 39 42 44 46 48 50 52 53 55 56 57 59 61 63 65 67 69 71 73 75
24 25 24 25 25 26 25 21 21 23 21 21 22 22 23 23 24 25 26 28 29 29 30 32 33 34 36 37 40 42 44 46 48 50 52 53 55 56 58 59 61 63 65 67 68 70 72 74 76
25 26 27 27 27 26 27 24 18 23 22 23 23 24 25 25 26 27 28 30 31 32 33 34 36 37 39 40 42 45 47 48 50 52 54 55 57 58 60 61 63 65 67 68 70 72 73 74 75
27 28 28 28 28 27 27 28 20 23 24 25 25 25 26 27 28 30 31 32 33 35 36 37 38 40 42 44 45 47 49 51 52 54 56 57 58 60 61 63 64 66 68 70 71 73 74 75 75
28 29 30 29 29 28 27 29 24 25 25 26 27 27 28 29 31 32 33 35 36 37 39 40 41 43 45 46 48 50 51 53 55 56 57 59 60 61 62 64 66 67 69 71 72 73 74 75 74
28 30 31 32 30 29 29 29 25 27 27 28 29 29 30 32 33 35 36 37 39 40 42 43 44 46 48 49 51 52 54 55 57 58 59 60 61 63 64 65 66 68 70 72 72 73 74 74 73
29 30 32 35 34 32 30 30 25 28 29 30 31 32 33 34 36 37 39 40 42 43 44 46 47 49 50 52 53 55 56 57 58 60 61 61 62 64 65 66 67 69 71 72 73 73 73 73 72
30 30 32 35 37 36 33 31 26 27 29 31 32 34 35 37 39 40 42 43 45 46 47 49 50 52 53 55 56 57 58 59 60 61 62 63 64 65 66 67 68 70 71 72 72 72 73 72 71
31 32 33 35 39 40 37 32 28 28 30 31 34 36 38 41 42 44 46 47 48 49 51 52 53 55 56 57 58 59 60 61 62 62 63 64 65 66 67 67 68 70 71 72 72 72 72 71 70
31 32 34 37 39 42 43 35 29 31 32 35 37 39 42 45 47 48 49 50 51 52 53 55 56 57 58 59 60 60 61 62 63 63 64 65 65 67 67 67 69 71 71 72 72 71 71 70 69
33 33 35 37 40 42 45 41 31 33 36 39 42 45 47 48 49 50 51 52 53 54 55 57 57 58 60 61 62 62 63 64 64 64 65 65 66 67 67 68 69 70 71 71 71 70 70 69 68
Wind_Direction
82 86 92 98 102 107 105 106 107 105 100 72 33 5 343 333 329 325 322 320 319 318 317 317 316 315 313 312 311 310 309 308 307 305 304 304 303 302 301 301 300 299 298 297 296 296 295 294 293
86 90 94 95 96 96 95 95 95 92 76 24 345 329 322 319 320 321 319 318 318 317 316 316 315 314 313 312 311 310 308 307 306 305 305 304 303 302 301 300 299 298 297 296 296 295 294 293 292
90 91 94 92 90 87 80 68 47 15 351 335 327 321 316 315 317 318 317 317 316 316 316 315 315 314 313 311 310 309 308 307 307 306 305 304 303 302 302 301 300 298 297 296 295 294 293 292 291
91 89 88 83 75 62 40 9 347 336 329 325 323 320 316 314 316 316 317 316 316 315 314 314 313 312 311 310 309 308 308 307 306 305 305 305 304 303 303 302 301 299 298 297 296 295 294 292 291
92 88 79 65 42 14 354 337 328 325 322 322 321 319 315 315 316 317 317 316 314 313 313 313 312 311 310 310 309 308 308 307 307 306 306 306 305 305 304 303 302 301 299 298 296 295 294 292 291
90 71 46 11 354 339 330 323 319 318 317 318 318 317 314 314 315 316 315 314 313 313 313 313 312 311 311 310 309 309 308 308 308 309 308 308 307 307 306 305 303 302 300 299 298 297 295 294 293
71 4 344 334 329 323 319 315 314 313 313 314 315 314 312 312 313 314 314 314 313 313 313 313 313 312 312 311 311 310 310 311 311 311 311 310 310 309 308 306 305 304 302 301 300 299 297 296 295
324 320 319 319 317 314 311 310 310 310 311 311 311 311 310 311 312 313 314 314 313 313 314 315 314 314 314 314 314 314 314 314 314 314 314 313 312 311 310 309 308 306 305 303 302 301 299 298 298
309 310 311 311 311 310 309 308 308 309 308 308 308 308 308 308 310 312 313 314 314 314 316 316 316 316 317 317 317 318 318 318 318 318 317 316 315 314 313 312 311 309 308 306 304 303 302 301 300
305 307 308 309 309 308 307 307 306 305 305 305 305 306 306 307 309 311 313 314 315 316 317 318 318 319 320 320 321 321 321 320 320 319 319 318 317 317 316 315 314 312 310 309 307 305 304 303 302
304 306 307 307 307 306 305 303 302 301 300 302 302 302 303 306 308 311 313 315 317 318 320 320 321 322 322 323 323 323 322 322 321 320 320 319 319 318 317 316 315 314 312 311 309 307 306 305 304
302 305 304 303 303 302 301 298 296 295 294 295 296 298 300 304 307 311 314 317 319 321 321 322 323 324 324 324 323 323 323 322 321 321 320 320 319 318 317 316 316 315 314 312 310 309 307 306 306
301 303 303 302 301 300 298 294 291 289 289 290 292 294 298 302 307 311 315 318 321 322 323 323 323 323 323 323 323 323 323 323 322 322 321 320 319 318 317 317 316 316 315 313 312 311 309 308 308
299 301 301 300 300 298 296 292 287 286 287 288 290 293 297 301 306 311 315 318 320 322 323 323 323 323 323 324 324 324 324 323 323 322 322 320 319 319 318 317 317 317 316 315 314 313 311 310 310
298 299 300 299 299 297 295 292 286 285 286 287 290 292 295 300 306 311 314 317 319 321 321 322 323 323 324 324 324 324 324 323 323 323 322 321 320 319 318 318 318 317 317 316 315 315 314 313 312
296 297 298 297 296 295 293 291 288 286 286 287 289 292 296 301 306 309 312 315 317 319 320 321 322 323 324 325 325 325 325 324 324 324 323 322 321 320 319 319 319 319 318 318 317 316 316 315 315
293 295 295 294 293 291 290 287 288 288 286 287 289 291 295 299 302 306 309 311 313 315 317 318 320 322 324 325 326 326 327 326 326 325 324 324 323 322 321 321 321 321 320 320 319 319 318 318 318
291 293 293 292 292 291 288 284 283 287 286 286 287 288 291 295 298 303 305 307 309 311 314 317 319 321 323 325 325 326 327 327 327 327 326 325 325 324 323 323 322 322 322 322 321 321 320 320 320
291 291 291 290 292 291 289 286 282 284 286 284 284 287 289 292 295 300 302 305 307 309 311 314 317 319 321 323 324 325 326 327 327 327 326 326 326 325 325 324 324 324 324 324 324 323 322 322 322
291 291 290 289 290 291 289 286 282 282 283 283 284 287 289 292 294 298 300 302 304 306 309 311 314 316 319 321 322 323 324 325 326 326 326 326 325 325 325 325 325 325 326 325 325 325 324 324 324
291 291 291 290 289 290 289 286 282 281 283 284 285 287 290 292 295 297 299 301 303 304 306 309 311 313 315 317 319 321 322 323 323 324 325 325 325 325 325 325 325 326 327 327 326 326 326 325 325
290 291 291 291 290 291 291 289 283 283 285 285 286 288 289 292 294 296 298 299 301 303 305 307 309 311 313 315 317 319 320 321 322 322 323 324 324 324 325 325 326 327 328 328 327 327 327 327 326
291 291 291 291 291 292 291 290 292 286 286 287 287 288 289 291 293 295 296 298 300 301 303 305 307 309 311 313 315 317 318 319 321 321 321 322 323 323 324 325 326 327 328 328 328 328 327 327 327
293 293 292 291 292 293 292 292 296 290 288 287 288 288 290 291 293 294 295 297 298 300 302 304 306 308 310 312 313 315 316 317 319 320 320 321 321 322 323 324 325 327 328 328 328 328 328 328 328
296 296 295 294 293 294 294 293 299 294 291 289 288 288 289 290 292 292 293 295 297 298 300 302 304 306 308 310 312 313 315 316 317 318 319 319 320 321 322 323 325 326 327 328 328 328 328 328 328
298 298 298 297 297 296 296 297 302 297 293 291 290 289 289 290 290 290 292 293 294 297 299 301 303 305 307 309 311 312 314 315 316 317 318 318 319 320 321 323 324 326 327 328 328 328 328 328 328
299 298 298 297 297 297 297 299 301 297 294 292 291 289 288 288 288 289 290 291 293 295 297 300 302 304 306 308 309 311 312 313 315 316 316 317 318 319 320 322 323 325 326 327 328 328 328 328 328
300 300 300 298 299 299 299 303 308 301 297 293 290 288 287 286 287 288 290 291 293 295 297 299 301 303 305 307 308 310 311 312 313 314 315 316 317 317 319 320 322 324 325 326 327 328 328 328 328
299 299 299 298 299 300 300 304 311 302 296 292 290 287 286 287 288 291 292 293 295 296 297 299 301 302 304 306 307 309 310 311 312 313 314 315 316 317 318 320 321 322 324 325 326 327 327 328 328
298 299 299 299 299 299 300 305 309 300 294 291 288 288 289 292 293 294 294 294 295 296 297 298 300 302 303 305 307 308 309 310 311 312 313 314 315 317 319 320 321 322 323 324 326 327 327 328 328
Height
5868 5868 5869 5870 5872 5872 5871 5872 5872 5872 5872 5872 5871 5871 5870 5870 5870 5871 5868 5866 5865 5864 5864 5863 5862 5861 5860 5859 5858 5857 5856 5855 5854 5853 5852 5851 5850 5849 5847 5846 5845 5844 5843 5843 5842 5841 5840 5840 5839
5869 5870 5871 5872 5872 5872 5873 5873 5873 5873 5873 5872 5872 5871 5870 5869 5868 5867 5865 5864 5863 5862 5862 5861 5860 5859 5858 5857 5855 5854 5853 5852 5850 5849 5848 5847 5845 5844 5843 5841 5840 5839 5838 5836 5835 5835 5834 5833 5832
5871 5872 5873 5873 5873 5873 5874 5874 5874 5873 5873 5872 5871 5870 5869 5868 5866 5865 5864 5863 5862 5861 5860 5858 5857 5856 5855 5854 5852 5851 5849 5848 5846 5845 5843 5842 5840 5839 5837 5836 5834 5832 5831 5830 5828 5827 5826 5825 5824
5873 5874 5874 5875 5874 5874 5874 5874 5873 5872 5871 5871 5870 5869 5867 5866 5865 5864 5862 5861 5860 5859 5858 5856 5855 5854 5852 5851 5849 5847 5846 5844 5842 5840 5838 5837 5835 5833 5831 5829 5827 5825 5824 5822 5820 5819 5817 5816 5815
5874 5875 5875 5875 5874 5874 5874 5873 5872 5871 5870 5869 5868 5866 5865 5864 5862 5861 5860 5859 5858 5857 5855 5854 5852 5851 5849 5847 5846 5844 5842 5840 5837 5835 5833 5831 5828 5826 5824 5822 5819 5817 5815 5813 5811 5809 5807 5805 5804
5876 5876 5876 5875 5874 5874 5873 5872 5871 5869 5868 5867 5866 5864 5863 5862 5860 5859 5858 5857 5856 5854 5853 5851 5850 5848 5846 5844 5842 5839 5837 5835 5832 5830 5827 5824 5822 5819 5816 5814 5811 5808 5806 5803 5801 5798 5796 5794 5791
5877 5876 5876 5875 5874 5873 5872 5870 5869 5868 5866 5865 5864 5862 5861 5860 5858 5857 5856 5855 5853 5852 5850 5848 5846 5844 5842 5840 5837 5835 5832 5829 5827 5824 5821 5818 5815 5812 5808 5805 5802 5799 5796 5793 5790 5787 5783 5780 5777
5876 5876 5875 5874 5873 5871 5870 5868 5867 5865 5864 5863 5862 5860 5859 5858 5856 5855 5854 5852 5850 5849 5847 5845 5843 5840 5838 5835 5833 5830 5827 5824 5821 5818 5814 5811 5807 5804 5800 5797 5793 5789 5786 5782 5778 5774 5770 5767 5763
5875 5876 5874 5873 5871 5870 5868 5866 5865 5863 5862 5860 5859 5858 5857 5855 5853 5852 5851 5849 5847 5846 5843 5841 5839 5836 5834 5831 5828 5825 5822 5818 5815 5811 5808 5804 5800 5796 5792 5788 5784 5779 5775 5771 5766 5762 5758 5753 5749
5875 5874 5872 5871 5869 5867 5865 5864 5862 5861 5859 5858 5857 5856 5854 5852 5851 5849 5848 5846 5844 5842 5840 5838 5835 5832 5830 5826 5823 5820 5816 5813 5809 5805 5801 5797 5793 5789 5784 5779 5775 5770 5765 5760 5755 5750 5745 5739 5734
5873 5872 5870 5868 5867 5865 5863 5862 5860 5858 5857 5856 5855 5853 5851 5850 5848 5847 5845 5843 5841 5839 5837 5834 5831 5828 5825 5822 5818 5815 5811 5807 5803 5799 5795 5790 5786 5781 5776 5771 5766 5760 5755 5749 5744 5738 5732 5726 5720
5871 5870 5868 5866 5864 5862 5861 5860 5858 5856 5855 5854 5852 5851 5849 5847 5845 5844 5842 5840 5838 5835 5833 5830 5827 5824 5821 5817 5814 5810 5806 5802 5797 5793 5788 5783 5778 5773 5768 5763 5757 5751 5745 5739 5733 5727 5720 5713 5707
5869 5867 5865 5863 5861 5860 5859 5857 5856 5854 5853 5851 5850 5848 5846 5845 5843 5841 5839 5837 5834 5832 5829 5826 5823 5820 5816 5813 5809 5805 5801 5796 5791 5786 5781 5776 5771 5765 5760 5754 5748 5742 5736 5729 5722 5715 5708 5701 5693
5867 5865 5863 5861 5859 5857 5856 5854 5853 5852 5851 5849 5847 5846 5844 5842 5840 5838 5836 5833 5831 5828 5825 5822 5819 5816 5812 5808 5804 5800 5795 5790 5785 5780 5774 5769 5763 5757 5751 5745 5739 5732 5725 5718 5711 5703 5696 5688 5679
5864 5862 5860 5858 5856 5854 5853 5852 5850 5849 5847 5846 5845 5843 5841 5839 5837 5835 5833 5830 5827 5825 5822 5818 5815 5811 5807 5803 5799 5794 5789 5784 5779 5773 5767 5761 5755 5749 5743 5736 5729 5722 5715 5707 5699 5691 5683 5674 5664
5861 5859 5857 5855 5853 5851 5851 5851 5847 5846 5844 5843 5841 5840 5838 5836 5834 5832 5829 5827 5824 5821 5817 5814 5810 5806 5802 5798 5793 5788 5783 5778 5772 5766 5760 5754 5747 5740 5733 5726 5719 5711 5703 5695 5687 5678 5669 5659 5648
5857 5856 5854 5852 5850 5848 5847 5847 5844 5842 5841 5839 5838 5836 5834 5832 5830 5828 5825 5823 5820 5817 5813 5810 5806 5802 5797 5793 5788 5783 5777 5771 5765 5759 5752 5745 5738 5731 5724 5716 5708 5700 5691 5683 5674 5664 5655 5644 5633
5854 5852 5850 5848 5846 5845 5843 5843 5841 5838 5837 5836 5834 5833 5831 5829 5827 5824 5822 5819 5816 5813 5809 5805 5801 5797 5792 5787 5782 5776 5770 5764 5758 5751 5744 5737 5729 5722 5714 5706 5697 5688 5679 5670 5660 5650 5638 5627 5616
5850 5848 5847 5844 5842 5840 5839 5839 5837 5835 5834 5833 5831 5829 5827 5825 5823 5820 5817 5814 5811 5808 5804 5800 5795 5791 5786 5781 5775 5769 5763 5757 5750 5743 5736 5728 5720 5712 5703 5694 5685 5676 5666 5656 5646 5635 5623 5610 5598
5846 5844 5842 5840 5837 5835 5835 5835 5833 5831 5830 5828 5827 5825 5823 5820 5818 5815 5812 5809 5806 5802 5798 5794 5789 5784 5779 5774 5768 5762 5756 5749 5742 5735 5727 5719 5710 5702 5693 5683 5673 5663 5653 5642 5631 5620 5607 5593 5579
5842 5839 5838 5835 5833 5831 5830 5831 5830 5827 5825 5824 5822 5820 5817 5815 5813 5810 5807 5803 5800 5796 5792 5787 5782 5777 5772 5766 5761 5754 5748 5741 5733 5726 5718 5709 5700 5691 5682 5672 5662 5651 5640 5628 5616 5604 5591 5577 5562
5838 5835 5833 5830 5828 5827 5825 5824 5827 5822 5820 5818 5817 5814 5812 5809 5807 5804 5801 5797 5793 5789 5785 5780 5775 5770 5764 5758 5752 5746 5739 5732 5724 5716 5708 5699 5690 5680 5671 5660 5650 5639 5627 5615 5602 5589 5576 5561 5546
5833 5830 5828 5825 5823 5823 5821 5818 5822 5818 5816 5813 5811 5809 5806 5803 5801 5797 5794 5790 5786 5782 5778 5773 5767 5762 5756 5750 5744 5737 5730 5723 5715 5706 5698 5689 5679 5670 5659 5649 5638 5626 5614 5602 5589 5575 5561 5546 5531
5828 5825 5823 5821 5819 5818 5816 5813 5816 5812 5810 5807 5805 5803 5800 5797 5794 5790 5787 5783 5779 5774 5770 5764 5759 5754 5747 5741 5734 5727 5720 5713 5704 5696 5687 5678 5668 5658 5648 5637 5626 5614 5602 5589 5575 5561 5547 5532 5516
5823 5821 5817 5815 5814 5813 5811 5808 5810 5806 5803 5800 5798 5796 5792 5790 5787 5783 5779 5775 5771 5766 5761 5756 5750 5744 5738 5732 5725 5718 5710 5702 5694 5685 5676 5667 5657 5647 5636 5625 5614 5602 5589 5576 5562 5548 5533 5518 5503
5819 5816 5813 5809 5807 5806 5805 5803 5806 5800 5796 5793 5791 5788 5785 5782 5778 5774 5770 5766 5762 5757 5752 5746 5741 5735 5728 5721 5715 5707 5699 5691 5683 5674 5665 5655 5645 5635 5624 5613 5602 5590 5577 5564 5550 5536 5521 5506 5491
5813 5811 5808 5803 5799 5798 5798 5799 5800 5794 5790 5786 5783 5780 5776 5772 5769 5765 5761 5756 5752 5747 5742 5736 5730 5724 5718 5711 5704 5696 5688 5680 5671 5662 5653 5643 5633 5623 5612 5601 5589 5577 5565 5552 5538 5524 5509 5494 5479
5808 5805 5802 5797 5793 5789 5790 5792 5793 5788 5783 5780 5775 5770 5766 5762 5759 5755 5751 5746 5742 5737 5731 5725 5719 5713 5707 5699 5692 5685 5677 5668 5659 5651 5641 5631 5621 5611 5600 5589 5577 5565 5553 5540 5526 5512 5498 5483 5468
5803 5801 5796 5791 5788 5783 5779 5786 5787 5780 5775 5771 5766 5761 5756 5752 5749 5745 5741 5736 5731 5726 5720 5714 5708 5702 5695 5688 5680 5673 5665 5656 5647 5638 5629 5619 5609 5598 5588 5577 5565 5553 5541 5528 5515 5501 5486 5472 5457
5796 5794 5790 5786 5783 5777 5771 5776 5778 5772 5765 5760 5755 5751 5746 5743 5739 5735 5730 5725 5720 5714 5708 5702 5696 5689 5683 5675 5668 5660 5652 5643 5634 5626 5616 5606 5596 5586 5576 5565 5553 5541 5529 5516 5503 5490 5475 5461 5447